When you browse on this site, cookies collect data to enhance your experience and personalize the content and advertising you see.
Visit our Privacy Policy to learn more. By continuing to use the site, you agree to this use of cookies and data.
EN

Hourly Weather Vershina

Today, 14 August, Friday

Time Temperature Precipitation Wind Pressure Humidity
00:00 +9°C° 0 mm 2 mps 725 mmHg 80%
01:00 +9°C° 0 mm 2 mps 726 mmHg 81%
02:00 +9°C° 0 mm 2 mps 725 mmHg 81%
03:00 +9°C° 0 mm 2 mps 725 mmHg 81%
04:00 +9°C° 0 mm 2 mps 725 mmHg 83%
05:00 +9°C° 0 mm 2 mps 725 mmHg 81%
06:00 +10°C° 0 mm 3 mps 725 mmHg 79%
07:00 +10°C° 0 mm 3 mps 725 mmHg 76%
08:00 +11°C° 0 mm 3 mps 725 mmHg 74%
09:00 +12°C° 0 mm 4 mps 725 mmHg 71%
10:00 +12°C° 0 mm 4 mps 725 mmHg 68%
11:00 +13°C° 0 mm 4 mps 725 mmHg 67%
12:00 +13°C° 0 mm 4 mps 725 mmHg 67%
13:00 +13°C° 0 mm 4 mps 725 mmHg 66%
14:00 +14°C° 0 mm 4 mps 725 mmHg 66%
15:00 +14°C° 0 mm 4 mps 725 mmHg 66%
16:00 +14°C° 0 mm 3 mps 725 mmHg 65%
17:00 +14°C° 0 mm 3 mps 725 mmHg 69%
18:00 +13°C° 0 mm 3 mps 724 mmHg 73%
19:00 +13°C° 0 mm 3 mps 724 mmHg 76%
20:00 +12°C° 0 mm 3 mps 724 mmHg 78%
21:00 +12°C° 0 mm 3 mps 724 mmHg 79%
22:00 +11°C° 0 mm 4 mps 724 mmHg 81%
23:00 +11°C° 0.2 mm 4 mps 723 mmHg 83%

Tomorrow, 15 August, Saturday

Time Temperature Precipitation Wind Pressure Humidity
00:00 +10°C° 0.2 mm 4 mps 723 mmHg 86%
01:00 +10°C° 0.2 mm 4 mps 723 mmHg 88%
02:00 +8°C° 0.2 mm 4 mps 723 mmHg 90%
03:00 +8°C° 0.2 mm 4 mps 723 mmHg 92%
04:00 +8°C° 0.2 mm 4 mps 723 mmHg 94%
05:00 +8°C° 0.2 mm 4 mps 723 mmHg 95%
06:00 +8°C° 0.2 mm 4 mps 723 mmHg 96%
07:00 +8°C° 0.2 mm 4 mps 723 mmHg 96%
08:00 +8°C° 0.3 mm 4 mps 723 mmHg 96%
09:00 +8°C° 0.3 mm 4 mps 723 mmHg 96%
10:00 +8°C° 0.3 mm 5 mps 723 mmHg 96%
11:00 +8°C° 0.2 mm 4 mps 723 mmHg 95%
12:00 +10°C° 0.2 mm 4 mps 723 mmHg 95%
13:00 +10°C° 0.2 mm 4 mps 723 mmHg 95%
14:00 +10°C° 0 mm 4 mps 723 mmHg 94%
15:00 +10°C° 0 mm 4 mps 723 mmHg 93%
16:00 +10°C° 0 mm 4 mps 723 mmHg 92%
17:00 +10°C° 0 mm 4 mps 723 mmHg 93%
18:00 +10°C° 0 mm 4 mps 723 mmHg 93%
19:00 +10°C° 0 mm 3 mps 723 mmHg 94%
20:00 +10°C° 0 mm 3 mps 723 mmHg 94%
21:00 +9°C° 0 mm 3 mps 722 mmHg 94%
22:00 +9°C° 0 mm 3 mps 722 mmHg 95%
23:00 +9°C° 0 mm 3 mps 722 mmHg 95%

Day after tomorrow, 16 August, Sunday

Time Temperature Precipitation Wind Pressure Humidity
00:00 +9°C° 0 mm 3 mps 722 mmHg 95%
01:00 +9°C° 0 mm 3 mps 721 mmHg 95%
02:00 +9°C° 0.1 mm 3 mps 721 mmHg 95%
03:00 +9°C° 0.1 mm 3 mps 721 mmHg 96%
04:00 +9°C° 0.1 mm 3 mps 720 mmHg 96%
05:00 +9°C° 0.1 mm 3 mps 720 mmHg 96%
06:00 +9°C° 0.1 mm 3 mps 720 mmHg 96%
07:00 +9°C° 0.1 mm 3 mps 719 mmHg 96%
08:00 +9°C° 1.4 mm 3 mps 719 mmHg 97%
09:00 +9°C° 1.4 mm 3 mps 719 mmHg 97%
10:00 +9°C° 1.4 mm 3 mps 718 mmHg 97%
11:00 +9°C° 1.8 mm 3 mps 718 mmHg 98%
12:00 +9°C° 1.8 mm 3 mps 718 mmHg 98%
13:00 +10°C° 1.8 mm 2 mps 718 mmHg 98%
14:00 +10°C° 0.3 mm 2 mps 717 mmHg 97%
15:00 +11°C° 0.3 mm 1 mps 717 mmHg 97%
16:00 +11°C° 0.3 mm 1 mps 717 mmHg 96%
17:00 +12°C° 0 mm 1 mps 717 mmHg 96%
18:00 +11°C° 0 mm 0 mps 717 mmHg 96%
19:00 +11°C° 0 mm 0 mps 716 mmHg 96%
20:00 +10°C° 0 mm 0 mps 716 mmHg 96%
21:00 +9°C° 0 mm 0 mps 716 mmHg 97%
22:00 +8°C° 0 mm 0 mps 716 mmHg 97%
23:00 +8°C° 0 mm 0 mps 716 mmHg 97%

17 August, Monday

Time Temperature Precipitation Wind Pressure Humidity
00:00 +8°C° 0 mm 0 mps 716 mmHg 97%
01:00 +8°C° 0 mm 0 mps 715 mmHg 98%
02:00 +9°C° 0 mm 1 mps 715 mmHg 98%
03:00 +9°C° 0 mm 1 mps 715 mmHg 98%
04:00 +9°C° 0 mm 1 mps 715 mmHg 98%
05:00 +9°C° 0 mm 1 mps 715 mmHg 97%
06:00 +9°C° 0 mm 2 mps 714 mmHg 97%
07:00 +10°C° 0 mm 2 mps 714 mmHg 96%
08:00 +10°C° 0.2 mm 2 mps 714 mmHg 95%
09:00 +11°C° 0.2 mm 3 mps 714 mmHg 94%
10:00 +11°C° 0.2 mm 3 mps 714 mmHg 93%
11:00 +12°C° 0.3 mm 3 mps 714 mmHg 92%
12:00 +12°C° 0.3 mm 3 mps 714 mmHg 92%
13:00 +12°C° 0.3 mm 3 mps 713 mmHg 91%
14:00 +12°C° 0.5 mm 3 mps 713 mmHg 90%
15:00 +12°C° 0.5 mm 3 mps 713 mmHg 89%
16:00 +12°C° 0.5 mm 3 mps 713 mmHg 88%
17:00 +13°C° 0.2 mm 2 mps 713 mmHg 91%
18:00 +12°C° 0.2 mm 2 mps 713 mmHg 94%
19:00 +12°C° 0.2 mm 2 mps 713 mmHg 97%
20:00 +10°C° 0.2 mm 2 mps 713 mmHg 97%
21:00 +10°C° 0.2 mm 2 mps 712 mmHg 98%
22:00 +11°C° 0.2 mm 1 mps 712 mmHg 98%
23:00 +11°C° 0.2 mm 1 mps 712 mmHg 98%

18 August, Tuesday

Time Temperature Precipitation Wind Pressure Humidity
00:00 +10°C° 0.2 mm 1 mps 712 mmHg 98%
01:00 +10°C° 0.2 mm 1 mps 712 mmHg 98%
02:00 +10°C° 0 mm 1 mps 711 mmHg 98%
03:00 +9°C° 0 mm 1 mps 711 mmHg 98%
04:00 +9°C° 0 mm 1 mps 711 mmHg 98%
05:00 +9°C° 0 mm 0 mps 712 mmHg 96%
06:00 +10°C° 0 mm 0 mps 712 mmHg 94%
07:00 +11°C° 0 mm 0 mps 712 mmHg 92%
08:00 +13°C° 0 mm 0 mps 712 mmHg 84%
09:00 +15°C° 0 mm 1 mps 713 mmHg 77%
10:00 +18°C° 0 mm 1 mps 713 mmHg 69%
11:00 +19°C° 0 mm 1 mps 713 mmHg 66%
12:00 +19°C° 0 mm 1 mps 714 mmHg 63%
13:00 +20°C° 0 mm 1 mps 714 mmHg 60%
14:00 +20°C° 0.2 mm 1 mps 714 mmHg 63%
15:00 +19°C° 0.2 mm 1 mps 714 mmHg 66%
16:00 +18°C° 0.2 mm 2 mps 714 mmHg 69%
17:00 +17°C° 0.4 mm 2 mps 714 mmHg 76%
18:00 +15°C° 0.4 mm 2 mps 715 mmHg 84%
19:00 +14°C° 0.4 mm 2 mps 715 mmHg 91%
20:00 +13°C° 0.1 mm 2 mps 715 mmHg 93%
21:00 +12°C° 0.1 mm 2 mps 715 mmHg 95%
22:00 +10°C° 0.1 mm 2 mps 716 mmHg 96%
23:00 +10°C° 0.1 mm 2 mps 716 mmHg 97%

19 August, Wednesday

Time Temperature Precipitation Wind Pressure Humidity
00:00 +10°C° 0.1 mm 2 mps 716 mmHg 97%
01:00 +10°C° 0.1 mm 3 mps 716 mmHg 98%
02:00 +10°C° 0 mm 3 mps 716 mmHg 97%
03:00 +10°C° 0 mm 3 mps 717 mmHg 97%
04:00 +10°C° 0 mm 3 mps 717 mmHg 96%
05:00 +10°C° 0 mm 3 mps 717 mmHg 95%
06:00 +10°C° 0 mm 3 mps 717 mmHg 94%
07:00 +11°C° 0 mm 4 mps 718 mmHg 93%
08:00 +11°C° 0 mm 4 mps 718 mmHg 92%
09:00 +11°C° 0 mm 4 mps 718 mmHg 91%
10:00 +11°C° 0 mm 4 mps 718 mmHg 90%
11:00 +11°C° 0 mm 4 mps 718 mmHg 88%
12:00 +11°C° 0 mm 4 mps 719 mmHg 86%
13:00 +11°C° 0 mm 4 mps 719 mmHg 84%
14:00 +12°C° 0 mm 4 mps 719 mmHg 81%
15:00 +12°C° 0 mm 5 mps 719 mmHg 79%
16:00 +12°C° 0 mm 5 mps 719 mmHg 76%
17:00 +12°C° 0 mm 4 mps 719 mmHg 77%
18:00 +12°C° 0 mm 4 mps 720 mmHg 78%
19:00 +12°C° 0 mm 3 mps 720 mmHg 80%
20:00 +11°C° 0 mm 3 mps 720 mmHg 80%
21:00 +11°C° 0 mm 4 mps 720 mmHg 80%
22:00 +10°C° 0 mm 4 mps 720 mmHg 80%
23:00 +10°C° 0 mm 4 mps 720 mmHg 81%
Show more